Location: Maiden_LMO
(35.5760°N, 81.2120°W)
Time: 13:03:01
(UTC-05:00)

Daily predictions for brighter satellites

Satellite Brightness Start Highest point End
(mag) Time Altitude Azimuth Time Altitude Azimuth Time Altitude Azimuth
Aureole 1 Rocket 4.3 17:30:11 10° NNW 17:36:32 81° ENE 17:44:30 10° SSE
Cosmos 2219 3.2 17:33:21 10° NNW 17:39:00 86° ENE 17:44:38 10° SSE
CORIOLIS 4.5 17:34:44 10° SE 17:39:51 45° ENE 17:44:59 10° N
ERS-2 4.0 17:39:25 10° E 17:40:39 11° ENE 17:41:52 10° NE
Cosmos 1271 Rocket 2.9 17:40:38 10° N 17:44:20 48° E 17:48:05 10° SSE
Atlas Centaur 2 2.8 17:41:52 10° W 17:47:25 45° S 17:51:48 10° ESE
Cosmos 1980 Rocket 3.8 17:45:49 10° SE 17:48:55 15° E 17:52:01 10° ENE
Cosmos 1484 Rocket 2.8 17:51:10 10° SSE 17:55:10 86° ENE 17:59:12 10° N
CENTAUR R/B 4.5 17:54:59 10° N 17:59:17 15° NE 18:02:54 12° ENE
Cosmos 2297 Rocket 2.6 17:55:03 10° N 18:00:21 40° ENE 18:05:37 10° SE
Cosmos 1025 Rocket 4.3 17:59:46 10° SE 18:02:58 21° E 18:05:43 12° NE
Ariane Rocket 3.1 17:59:12 10° SSE 18:04:16 86° WSW 18:09:21 10° NNW
Cosmos 1536 Rocket 3.5 18:00:43 10° S 18:05:02 68° E 18:09:22 10° NNE
Cosmos 1666 2.7 18:03:22 10° N 18:07:07 84° W 18:10:51 10° S
Cosmos 1975 4.3 18:03:30 10° NNW 18:07:20 41° W 18:11:09 10° SSW
Cosmos 1656 3.7 18:02:42 10° S 18:08:14 67° ESE 18:13:43 10° NNE
ISS -3.6 18:08:36 10° NW 18:11:48 46° NE 18:14:26 14° ESE
PSLV R/B 4.0 18:12:56 10° W 18:15:54 35° NNW 18:17:28 21° NE
Cosmos 1125 Rocket 3.5 18:10:45 10° SSW 18:16:03 88° ESE 18:21:22 10° NNE
Meteor 2-4 Rocket 3.6 18:11:27 10° S 18:16:56 88° E 18:22:20 10° N
Cosmos 389 Rocket 4.3 18:15:55 10° NNW 18:19:06 33° W 18:22:13 10° SSW
SKYMED 2 3.5 18:16:29 10° NNE 18:20:48 65° ESE 18:25:05 10° S
Cosmos 2084 4.0 18:17:57 10° S 18:21:51 36° ESE 18:23:42 23° ENE
CZ-4 R/B 1.7 18:19:36 10° S 18:23:25 67° WSW 18:27:19 10° NNW
USA 238 DEB 3.7 18:17:24 10° NNW 18:24:33 77° ENE 18:31:45 10° SE
USA 238 3.7 18:17:30 10° NNW 18:24:39 76° ENE 18:31:51 10° SE
Cosmos 1048 Rocket 4.0 18:22:48 10° N 18:28:09 62° ENE 18:33:26 10° SSE
Cosmos 2369 4.0 18:24:47 10° SSW 18:30:24 67° WNW 18:36:06 10° NNE
Cosmos 2278 4.0 18:25:45 10° SSW 18:31:23 70° WNW 18:37:06 10° NNE
Cosmos 2266 Rocket 3.9 18:26:45 10° N 18:32:51 85° E 18:39:03 10° S
Hubble Space Telescope 2.7 18:33:50 10° WSW 18:37:12 24° S 18:40:23 11° SE
NOAA 12 4.1 18:32:08 10° SSE 18:37:15 54° ENE 18:42:22 10° N
Cosmos 372 Rocket 4.5 18:32:10 10° SSW 18:37:18 61° WNW 18:42:27 10° N
SL-24 R/B - RUBIN 2 4.5 18:32:43 10° SSW 18:38:53 55° ESE 18:42:12 25° NE
FENGYUN 3A 3.6 18:35:02 10° SSE 18:40:18 60° ENE 18:45:35 10° N
Meteor 1-15 Rocket 4.3 18:35:26 10° N 18:41:20 64° E 18:47:09 10° SSE
Okean 2 3.3 18:38:55 10° S 18:42:58 63° E 18:45:16 24° NNE
METEOR-M 4.3 18:38:42 10° S 18:44:01 75° WSW 18:49:22 10° NNW
DELTA 2 R/B (1) 3.8 18:41:22 10° WNW 18:46:51 57° N 18:49:04 35° ENE
EO 1 Del DPAF 3.5 18:45:04 13° N 18:48:22 68° WNW 18:52:08 10° SSW
GOES 2 Rocket 4.4 18:44:22 10° WSW 18:48:28 35° S 18:51:17 20° SE
MINOTAUR IV R/B 4.4 18:44:18 10° NNW 18:48:48 80° ENE 18:53:15 10° SSE
MONITOR-E 4.3 18:45:52 10° S 18:48:53 72° W 18:51:56 10° NNW
YAOGAN 1 3.5 18:46:09 10° S 18:50:19 49° W 18:54:32 10° NNW
Cosmos 1697 Rocket 2.8 18:46:05 10° SSW 18:51:43 79° WNW 18:56:12 17° NNE
Cosmos 1515 3.7 18:48:21 10° S 18:52:07 77° W 18:54:28 22° N
NOSS 3-2 (A) 4.0 18:46:28 10° NNW 18:54:09 71° ENE 19:02:24 10° SE
Delta 2 Rocket 4.4 18:52:23 10° W 18:57:48 57° SSW 19:00:16 29° SE
STPSAT 2 (USA 217) 4.4 18:55:13 10° NNW 18:59:46 72° ENE 19:04:17 10° SSE
NOSS 3-2 (C) 4.0 18:53:32 10° NNW 19:01:08 61° NE 19:09:17 10° SE
Cosmos 2082 4.2 18:59:31 10° NNW 19:05:03 60° WSW 19:10:33 10° S
Cosmos 1244 Rocket 4.3 19:00:08 10° N 19:06:16 69° E 19:12:25 10° SSE
COSMO-SKYMED 1 4.2 19:04:49 10° N 19:08:44 33° WNW 19:12:36 10° SW
FengYun 1-2 T 4.2 19:03:20 10° SSE 19:08:47 56° ENE 19:14:17 10° N
ATLAS 3B R/B 3.3 19:03:29 10° NW 19:09:51 52° WSW 19:16:05 10° S
ERS-2 3.6 19:10:30 10° S 19:13:55 38° W 19:17:22 10° NNW
OAO 1 Rocket 4.3 19:09:44 10° W 19:15:05 86° S 19:15:48 68° ESE
ALOS 3.0 19:10:48 10° S 19:15:21 54° W 19:19:55 10° NNW
SJ 16-02 3.7 19:12:03 10° WSW 19:15:21 21° WNW 19:18:40 10° NNW
Cosmos 2227 Rocket 3.8 19:12:22 10° NW 19:17:27 35° WSW 19:22:31 10° SSW
Cosmos 1553 Rocket 3.9 19:17:04 10° S 19:23:26 75° E 19:26:05 38° NNE
NOSS 3-4 (A) 4.2 19:19:26 10° SW 19:25:26 50° NW 19:28:35 28° N
NOSS 3-4 (C) 4.1 19:19:31 10° SW 19:25:32 50° NW 19:28:39 28° N
Atlas 2A Centaur Rocket 4.4 19:17:27 10° W 19:25:43 22° SW 19:28:26 13° S
Cosmos 1417 Rocket 4.4 19:20:19 10° S 19:26:27 89° W 19:30:03 27° N
Cosmos 1066 Rocket 4.1 19:25:08 10° S 19:30:43 85° W 19:31:38 63° N
Cosmos 1980 Rocket 2.5 19:26:41 10° SSW 19:32:16 62° WNW 19:34:02 42° N
Atlas Centaur 2 3.4 19:32:02 10° WSW 19:35:40 21° SSW 19:36:07 21° SSW
Thor Agena Rocket 3.8 19:44:03 68° W 19:44:03 68° W 19:49:11 10° SSW
Cosmos 2297 Rocket 4.4 19:39:38 10° NW 19:44:05 24° W 19:48:32 10° SSW
RESURS DK-1 4.2 19:42:39 10° SW 19:44:48 28° SW 19:44:48 28° SW
ISS -0.5 19:46:17 10° W 19:47:12 13° WSW 19:47:12 13° WSW
Cosmos 2344 3.7 19:43:16 10° SSW 19:49:48 55° SE 19:49:48 55° SE
CENTAUR R/B 3.4 19:43:53 10° NNW 19:50:09 49° NNE 19:50:09 49° NNE
SL-16 R/B 4.0 20:06:26 10° SSW 20:08:18 22° SSW 20:08:18 22° SSW
Cosmos 2322 Rocket 4.2 20:12:20 10° SSW 20:13:49 19° SSW 20:13:49 19° SSW
